Torna al catalogo

NIMBUS 7

AttivoMeteoSSO
NORAD 11080·PAYLOAD·🇺🇸 United States

Lanciato Oct 24, 1978 da Vandenberg Space Force Base

Loading…

Prossimi Passaggi (prossime 24 ore)

TLE

AggiornatoSource: Space-Track

Epoca: Sep 14, 2026, 09:55 UTC

1 11080U 78098A   26257.41345484 -.00000025  00000-0  18613-4 0  9998
2 11080  99.4536 142.2883 0009473  38.9765 321.2071 13.84523185419041

Traccia NIMBUS 7 in tempo reale con AllMySat

Download on the App Store